DELTA 1 DEB, 5971

Orbit data source: Space-Track

DELTA 1 DEB, 5971 is space debris in SSO originally from a launch on Thu, 26 Jan 1967 UTC launched from the Air Force Western Test Range (AFWTR). Debris objects in space refer to the collection of defunct objects orbiting the Earth. Examples of debris include non-operational satellites, rocket bodies, and fragments generated from explosions, collisions, or faulty payload assembly.

Loading next visibility...
Identifier
5971, 1967-006E
Orbit
SSO
Last TLE update
17 hours ago
Origin
Manufacturer
Unknown
Mission
Spacecraft
Bus & Motor
Unknown
Mass
Unknown
Launch date (UTC)
1967-01-26 (58 years ago)
Launch vehicle
Unknown
Launch site
Air Force Western Test Range (AFWTR)
Object type
Payload
Rocket body
Debris
Shape & HBR
Unknown
Radar Cross Section
Small (<0.1 m²)

Expand to show TLE details & history

TLE from 17 hours ago
0 DELTA 1 DEB
1 05971U 67006E   25199.27037252 -.00000041  00000-0  38577-4 0  9995
2 05971 101.9193 124.1331 0112430 273.4669 241.4929 12.73468898718587
Epoch: 2025-07-18T06:29Z
TLE epoch observation values (Epoch: 2025-07-18T06:29:20.185Z)
Latitude
25.5907°
Longitude
-83.75186°
Altitude
1,412.985 km
Speed
7.137 km/s
True Right ascension
20h 39m 37s
True Declination
25° 28' 06"
Sunlit
Object was in full shadow at epoch
Visualization orbit readout
Latitude
4.41357°
Longitude
-87.85502°
Altitude
1,379.091 km
Speed
7.166 km/s
Apparent Right ascension
21h 53m 13s
Apparent Declination
-17° 28' 10"
Sunlit
Object is in full shadow
Visualization observer readout
Local Sidereal Time
12:21:55
Azimuth
65.933° ENE
Elevation
-50.856°
Doppler factor
1
Orbital elements
Apogee altitude
1,452.427 km
Perigee altitude
1,278.307 km
Semi-major axis
7,743.504 km
Eccentricity
0.01124
Inclination
101.9193°
RAAN
124.1331°
Arg. of periapsis
273.4669°
True anomaly
240.36837°
Mean anomaly
241.4929°
Eccentric anomaly
240.92987°
Mean motion
3.1852 °/min
Orbital period
113.02 mins
BSTAR
0.000038577
Loading maneuver chart data...
Loading SW <> Apogee altitude chart data...
Loading historical data...
Loading historical data...
Loading historical data...
Loading historical data...
Loading historical data...
Loading historical data...
Loading historical data...
Other satellites on launch #6 in the year 1967 (1967-01-26 UTC)
|